Home   Weather   Cuttack   Past weeks

Flag for India Past Weather in Cuttack, Odisha, India — Yesterday and Last 2 Weeks

Now
82 °F

Scattered clouds.


Feels Like: 94 °F
Forecast: 80 / 111 °F
Wind: 12 mph from Southwest

Location: Bhubaneswar Airport

Current Time: Apr 24, 2017 at 7:07:34 am

Latest Report: Apr 24, 2017 at 6:30 am


Visibility: 2 mi

Pressure: 29.68 "Hg

Humidity: 94%

Dew Point: 81 °F

Location of CuttackLocation

Past Weather in Cuttack — Graph

°F

Cuttack Temperature Yesterday

Maximum temperature yesterday: 97 °F (at 1:30 pm)
Minimum temperature yesterday: 82 °F (at 2:30 am)
Average temperature yesterday: 88 °F

High & Low Weather Summary for the Past Weeks

 TemperatureHumidityPressure
High104 °F (Apr 11, 1:30 pm)100% (Apr 12, 6:00 am)29.83 "Hg (Apr 12, 6:00 am)
Low72 °F (Apr 17, 2:30 am)19% (Apr 11, 1:30 pm)29.53 "Hg (Apr 12, 1:30 pm)
Average87 °F73%29.71 "Hg
* Reported Apr 9 5:30 am — Apr 24 5:30 am, Cuttack, Weather by CustomWeather, © 2017

Note: Actual official high and low records may vary slightly from our data, if they occured in-between our weather recording intervals... More about our weather records

Advertising

Cuttack Weather History for the Previous 24 Hours

Scroll right to see more
 ConditionsComfort  
Time TempWeatherWind HumidityBarometerVisibility
5:30 am
Mon, Apr 24
82 °FPassing clouds.14 mph94%29.65 "Hg2 mi
5:00 am82 °FPassing clouds.15 mph94%29.62 "Hg2 mi
4:30 am82 °FPassing clouds.14 mph94%29.62 "Hg2 mi
3:00 am82 °FPassing clouds.15 mph94%29.62 "Hg2 mi
2:00 am82 °FPassing clouds.15 mph94%29.62 "Hg2 mi
1:00 am82 °FPassing clouds.14 mph94%29.65 "Hg3 mi
12:00 am82 °FPassing clouds.12 mph94%29.65 "Hg2 mi
11:30 pm
Sun, Apr 23
82 °FPassing clouds.13 mph94%29.65 "Hg2 mi
11:00 pm82 °FPassing clouds.14 mph94%29.65 "Hg2 mi
10:30 pm82 °FPassing clouds.14 mph94%29.65 "Hg2 mi
10:00 pm82 °FPassing clouds.13 mph94%29.65 "Hg2 mi
9:30 pm84 °FPassing clouds.12 mph89%29.65 "Hg2 mi
9:00 pm84 °FPassing clouds.14 mph89%29.65 "Hg2 mi
8:30 pm84 °FPassing clouds.14 mph89%29.65 "Hg2 mi
8:00 pm84 °FPassing clouds.14 mph84%29.65 "Hg2 mi
7:30 pm86 °FHaze.12 mph79%29.65 "Hg2 mi
6:30 pm86 °FHaze.14 mph79%29.59 "Hg2 mi
6:00 pm88 °FHaze.14 mph75%29.59 "Hg2 mi
5:30 pm90 °FHaze.12 mph71%29.59 "Hg2 mi
5:00 pm90 °FHaze.18 mph71%29.59 "Hg2 mi
4:30 pm91 °FHaze.16 mph67%29.59 "Hg2 mi
4:00 pm93 °FScattered clouds.16 mph63%29.59 "Hg2 mi
3:30 pm95 °FScattered clouds.14 mph60%29.59 "Hg2 mi
3:00 pm95 °FScattered clouds.16 mph60%29.62 "Hg2 mi
2:30 pm95 °FScattered clouds.16 mph60%29.62 "Hg2 mi
2:00 pm97 °FScattered clouds.14 mph56%29.65 "Hg2 mi
1:30 pm97 °FScattered clouds.16 mph56%29.65 "Hg2 mi
1:00 pm95 °FScattered clouds.14 mph60%29.65 "Hg2 mi
12:30 pm95 °FScattered clouds.15 mph60%29.68 "Hg2 mi
12:00 pm95 °FScattered clouds.14 mph60%29.71 "Hg2 mi
11:30 am95 °FScattered clouds.14 mph60%29.71 "Hg2 mi
11:00 am93 °FScattered clouds.12 mph67%29.71 "Hg2 mi
10:31 am91 °FScattered clouds.14 mph71%29.74 "Hg2 mi
10:00 am91 °FScattered clouds.14 mph71%29.74 "Hg2 mi
9:30 am90 °FScattered clouds.14 mph75%29.74 "Hg2 mi
9:00 am90 °FHot.7 mph75%29.71 "HgN/A
8:00 am84 °FScattered clouds.14 mph89%29.71 "Hg2 mi
7:30 am84 °FScattered clouds.14 mph89%29.68 "Hg2 mi
7:00 am82 °FScattered clouds.14 mph94%29.68 "Hg2 mi
Weather by CustomWeather, © 2017

See weather overviewHow to use our weather pages